Regional Weather Roundup
Issued by NWS Jackson, KY

Home | Current Version | Previous Version | Text Only | Print | Product List | Glossary On
Versions: 1 2 3 4 5 6 7 8 9 10 11 12 13 14 15 16 17 18 19 20 21 22 23 24 25
000
ASUS43 KJKL 172210
RWRJKL

EAST KENTUCKY HOURLY WEATHER ROUNDUP
NATIONAL WEATHER SERVICE JACKSON KY
500 PM EST SAT FEB 17 2018

NOTE: "FAIR" INDICATES FEW OR NO CLOUDS BELOW 12,000 FEET WITH
NO SIGNIFICANT WEATHER AND/OR OBSTRUCTIONS TO VISIBILITY.

* THESE REPORTS ARE NOT UNDER NWS QUALITY CONTROL AND MAY NOT
  REPORT WEATHER SUCH AS PRECIPITATION AND FOG.

KYZ079-080-083-085-087-088-110-112-115-119-120-172300
...EASTERN KENTUCKY...

CITY           SKY/WX    TMP DP  RH WIND       PRES   REMARKS
JACKSON        LGT RAIN  38  38 100 SE7       29.99F FOG     WCI  33
LONDON         LGT RAIN  41  40  96 S6        30.01F
SOMERSET*      LGT RAIN  41  41 100 S5        30.03F
WILLIAMSBURG*  CLOUDY    41  41 100 S6        30.03F
MIDDLESBORO*   RAIN      42  42 100 CALM      30.04F
HARLAN APT*    CLOUDY    43  41  93 CALM      30.02F
PIKE CO APT*   LGT RAIN  37  37 100 CALM      30.03R
BIG SANDY APT* LGT RAIN  39  39 100 S7        30.03R WCI  34
MOREHEAD APT*  CLOUDY    37  37 100 VRB6      30.01S WCI  33
ASHLAND*       LGT RAIN  33  32  96 CALM      30.04F FOG
$$

KYZ035-036-041-042-044-050-067-078-099-172300
...CENTRAL KENTUCKY...

CITY           SKY/WX    TMP DP  RH WIND       PRES   REMARKS
MT STERLING*   CLOUDY    37  37 100 SW5       30.01F WCI  34
FLEMING/MASON* CLOUDY    32  32 100 CALM      30.02S FOG
DANVILLE*      CLOUDY    39  37  93 SW6       30.02R WCI  35
LEXINGTON      CLOUDY    40  36  86 SW5       30.01S
FRANKFORT      CLOUDY    36  33  89 CALM      30.01R FOG
LOUISVILLE     CLOUDY    37  35  92 S5        30.04R WCI  33
LEBANON*       CLOUDY    39  39 100 SW7       30.03R WCI  34
GLASGOW*       CLOUDY   N/A N/A N/A SW5       30.04R
BOWLING GREEN  CLOUDY    44  42  93 SW7       30.06R
$$

KYZ091>093-OHZ055-061-077-WVZ005-015-034-035-042-172300
...SOUTHERN OHIO/WEST VIRGINIA...

CITY           SKY/WX    TMP DP  RH WIND       PRES   REMARKS
COVINGTON      CLOUDY    34  34 100 S6        30.00R FOG     WCI  29
COLUMBUS       LGT SNOW  33  32  96 S5        30.00R FOG     WCI  29
DAYTON         CLOUDY    34  34 100 SW7       30.01R FOG     WCI  28
WILMINGTON     CLOUDY    33  33 100 S8        29.99R FOG     WCI  26
HUNTINGTON     RAIN      38  36  92 CALM      29.99F FOG
CHARLESTON     RAIN      40  39  97 S9        30.01S FOG     WCI  34
BECKLEY        LGT RAIN  33  32  96 SE7       30.01R WCI  27
BLUEFIELD      RAIN      35  34  96 SE3       30.01S FOG
LOGAN CO APT*  LGT RAIN  37  37 100 CALM      30.01F
$$

VAZ002-007-008-TNZ017-027-036-066-071-172300
...SOUTHWEST VIRGINIA/EAST TENNESSEE...

CITY           SKY/WX    TMP DP  RH WIND       PRES   REMARKS
WISE*          RAIN      41  41 100 SE3       30.01S
JONESVILLE*    RAIN      45  45 100 CALM      30.06S
ABINGDON*      RAIN      46  44  95 CALM      30.03F
BRISTOL        RAIN      47  47 100 SW5       30.04F FOG
MORRISTOWN*    CLOUDY    45  45 100 CALM      30.04S FOG
SEVIERVILLE*   CLOUDY    46  45  93 CALM      30.05F FOG
KNOXVILLE      LGT RAIN  46  45  96 CALM      30.03S FOG
LAFOLLETTE*    CLOUDY    45  45 100 CALM      30.08R FOG
OAK RIDGE      RAIN      45  45 100 CALM      30.07  FOG
CROSSVILLE     LGT RAIN  43  41  93 CALM      30.06R FOG
NASHVILLE      CLOUDY    47  44  90 SW6       30.08R
$$

...KEY TO REMARKS...
VSB - VISIBILITY IN MILES
WCI - WIND CHILL INDEX
HX  - HEAT INDEX

$$




USA.gov is the U.S. government's official web portal to all federal, state and local government web resources and services.